Regional Weather Roundup
Issued by NWS Binghamton, NY

Home | Current Version | Previous Version | Text Only | Print | Product List | Glossary On
Versions: 1 2 3 4 5 6 7 8 9 10 11 12 13 14 15 16 17 18 19 20 21 22 23 24 25 26 27
000
ASUS41 KBGM 170410
RWRBGM
RWRBGM
BINGHAMTON REGIONAL WEATHER ROUNDUP
NATIONAL WEATHER SERVICE BINGHAMTON NY
1200 AM EDT THU APR 17 2014

Note: "fair" indicates few or no clouds below 12,000 feet with no
significant weather and/or obstructions to visibility.

* = Station(s) that does not report precipitation, such as rain,
snow, etc, also no thunder or fog.

!NYZ009-015>018-022>025-036-037-044>046-055>057-062-170500
...CENTRAL NEW YORK...

CITY           SKY/WX    TMP DP  RH WIND       PRES   REMARKS
BINGHAMTON     CLEAR     27  13  55 E6        30.51R WCI  20
CORTLAND       FAIR      28  19  69 CALM      30.56R
DANSVILLE      CLEAR     32  19  58 S7        30.55R WCI  26
ELMIRA         CLEAR     26  18  71 CALM      30.55R
ITHACA         CLEAR     26  16  66 E5        30.56R WCI  20
HAMILTON       CLEAR     27  21  80 CALM      30.55
MONTICELLO     CLEAR     28  16  59 N6        30.53S WCI  22
NORWICH        CLEAR     25  18  74 CALM      30.58R
ONEONTA        CLEAR     23  12  63 CALM      30.53R
PENN YAN       CLEAR     27  19  72 CALM      30.55R
ROME           CLEAR     24  17  74 CALM      30.61R
SIDNEY         CLEAR     28  18  64 CALM      30.57R
SYRACUSE       PTCLDY    28  17  63 CALM      30.59S
$$

!PAZ038>040-043-044-047-048-072-170500
...NORTHEAST PENNSYLVANIA...

CITY           SKY/WX    TMP DP  RH WIND       PRES   REMARKS
SCRANTON       CLEAR     31  17  56 CALM      30.54R
TOWANDA*       CLEAR     28  19  69 CALM      30.57R
$$
&&
KEY
WCI = WIND CHILL INDEX
VSB = VISIBILITY
HX  = HEAT INDEX
$$



USA.gov is the U.S. government's official web portal to all federal, state and local government web resources and services.